RH
8 7 6 5 5 5 5 5 6 6 8 9 10 13 15 17 18 18 19 19 18 21 27 37 51 62 65 67 73 83 92 94 93 93 95 97 96 91 89 88 83 79 78 76 75 74 73 75 71 67 78 84 88 92 61 17 11 17 16 18 17 18 30 33 29 27 25 21 17 14 12 11 11 11
1 1 1 1 1 1 1 1 1 1 1 2 2 4 5 7 10 12 14 16 16 17 20 24 34 50 71 83 72 64 77 92 94 91 91 93 95 94 89 88 87 81 78 78 76 74 71 73 73 66 71 81 87 94 71 24 10 17 16 18 20 21 28 30 26 22 19 16 13 11 11 10 11 11
1 1 0 1 1 0 1 0 1 1 0 1 1 1 2 2 3 5 7 10 12 15 17 18 23 31 50 68 64 51 60 83 94 92 89 90 93 94 89 88 89 82 77 78 79 78 72 70 73 68 66 76 86 96 81 35 11 16 18 19 20 22 26 28 24 19 15 13 11 10 10 10 10 11
1 1 1 1 1 0 1 0 1 1 0 1 1 0 1 1 1 2 2 4 6 9 13 14 17 22 27 37 43 44 52 71 89 92 89 91 92 92 91 90 89 83 79 81 82 81 77 70 70 70 68 70 80 93 82 40 13 14 18 20 21 22 25 25 23 18 14 12 10 9 9 9 9 11
1 1 1 1 1 1 1 1 1 1 0 1 1 1 1 1 1 1 1 1 2 3 7 10 12 17 20 22 27 36 42 51 73 90 91 91 91 91 92 93 93 89 85 85 84 80 78 75 72 71 70 69 73 83 75 42 17 13 16 20 22 21 23 24 22 18 14 11 10 9 9 9 9 11
1 1 1 1 1 1 1 1 1 1 1 1 1 1 1 1 1 1 1 1 1 0 2 4 7 12 17 18 20 26 30 33 53 79 88 89 92 93 93 92 94 95 90 85 85 84 80 77 74 72 73 71 69 74 71 47 22 13 14 18 22 21 21 22 20 17 14 11 9 9 9 9 10 12
1 1 2 1 1 1 1 1 1 1 1 1 1 1 1 1 1 1 1 1 1 1 1 0 3 6 10 16 18 22 25 26 37 60 79 90 96 96 95 94 93 94 92 87 84 85 83 81 77 74 73 74 71 69 69 53 28 15 13 15 19 21 20 19 17 15 12 10 9 8 9 9 10 12
2 2 2 1 2 2 1 1 1 1 1 1 1 1 1 1 1 1 1 1 0 1 1 1 1 1 4 9 14 19 22 22 27 41 64 85 97 97 92 93 95 94 93 91 85 81 82 81 80 77 73 73 72 69 65 54 35 21 14 12 15 18 18 18 16 14 11 9 8 8 8 10 12 13
2 2 2 2 2 2 1 2 1 1 1 1 1 1 1 1 1 1 1 1 1 1 0 1 1 0 1 1 6 14 19 22 23 28 45 66 84 96 93 89 93 94 91 91 90 89 88 82 78 78 76 73 71 69 66 56 41 27 18 13 13 13 14 15 15 14 12 10 8 8 9 11 12 13
2 2 2 2 2 2 1 2 1 1 1 1 1 1 1 1 1 1 1 1 1 1 1 1 0 1 1 -0 1 5 11 21 22 27 47 60 65 80 92 91 92 93 92 91 91 94 96 90 84 81 78 77 75 72 69 61 48 34 23 17 14 12 12 12 11 11 11 9 8 9 10 11 12 12
2 2 2 2 2 2 1 1 1 1 1 1 1 1 1 1 1 1 1 1 1 1 1 1 1 1 1 0 1 0 4 14 19 27 47 56 59 69 79 89 94 90 90 93 92 94 97 95 93 89 82 82 83 79 75 69 56 42 31 23 17 14 12 11 11 10 9 9 9 9 11 11 11 11
2 2 2 2 2 1 1 2 1 1 1 1 1 1 1 1 1 1 1 1 1 1 1 1 1 1 1 0 1 1 0 4 12 25 33 45 74 88 73 75 94 95 91 94 94 95 97 95 96 97 91 86 86 85 80 74 67 53 39 29 23 18 15 13 12 11 10 10 9 10 11 11 11 11
2 2 2 1 2 1 1 1 1 1 2 2 2 2 2 2 1 1 1 1 1 1 1 1 1 1 1 1 0 1 2 -1 2 16 25 36 75 101 82 66 79 93 97 97 94 94 96 96 97 99 98 91 86 87 83 77 76 67 49 36 29 24 20 16 14 13 12 11 10 10 11 11 11 12
2 2 2 1 1 1 1 2 2 2 2 3 3 3 3 3 3 2 1 1 1 1 1 1 1 1 1 1 1 -0 1 2 -2 4 17 28 53 88 96 75 61 76 96 99 94 94 94 97 98 97 100 98 90 87 86 82 82 76 62 46 34 28 25 21 18 15 13 12 11 11 11 11 11 12
2 2 2 1 2 2 2 2 2 3 3 3 4 3 4 6 8 8 6 3 3 2 2 1 1 2 0 0 2 1 -1 3 1 -1 7 19 32 59 90 93 73 70 87 96 98 98 95 97 98 95 99 101 94 88 86 87 87 83 74 59 43 33 30 27 24 20 16 13 12 12 12 12 13 12
2 2 1 1 2 2 3 3 3 4 3 3 4 5 7 10 13 17 18 16 12 9 8 6 2 3 3 0 1 2 1 0 2 0 -0 9 21 35 65 98 94 68 65 85 98 97 92 95 97 94 96 98 97 93 90 91 91 87 82 73 55 40 34 32 31 26 21 16 13 12 12 12 13 14
2 2 2 2 3 4 4 5 4 4 4 5 8 10 14 18 23 29 32 31 29 26 25 22 17 14 13 6 -0 1 2 -0 1 3 -1 1 15 25 42 74 86 67 58 75 89 87 86 95 97 94 94 97 99 99 96 94 93 90 87 83 70 52 39 35 35 32 27 20 15 13 13 13 14 14
2 2 3 3 5 6 6 6 6 6 8 11 15 18 23 29 34 39 41 41 41 41 44 44 42 40 37 25 10 2 1 2 0 2 2 -1 5 17 29 44 62 73 75 76 78 79 83 95 100 94 93 97 98 99 99 97 94 91 90 88 82 67 49 38 36 36 32 26 19 15 14 14 14 14
2 3 4 6 7 7 8 9 10 12 15 20 24 27 31 36 41 46 50 50 49 47 49 53 54 57 57 50 33 14 2 2 1 0 3 2 -1 8 21 28 44 74 87 74 65 72 84 95 99 95 94 97 98 99 100 99 97 94 92 90 87 79 63 45 37 37 36 31 24 18 15 15 15 16
3 5 6 8 9 10 12 14 16 19 23 27 30 33 37 42 48 54 58 60 61 58 58 59 58 58 58 58 52 35 13 2 2 1 0 2 0 1 9 17 32 68 93 78 56 64 88 99 99 97 96 94 96 99 100 99 99 98 95 93 90 87 78 60 43 37 37 35 29 23 18 16 16 17
4 6 8 10 11 13 16 18 22 25 28 32 36 40 46 51 56 61 65 67 71 71 68 64 60 55 51 51 54 48 28 9 4 4 1 1 3 -0 1 9 22 53 86 81 55 60 89 100 96 97 98 95 95 98 99 99 100 99 97 96 92 90 87 75 58 44 38 35 31 27 21 17 17 19
6 9 11 13 14 17 20 24 28 32 34 39 45 50 56 63 69 73 76 77 77 75 73 68 61 55 53 54 55 50 37 20 11 7 2 -0 2 1 -0 4 14 37 64 67 52 59 85 98 96 97 99 98 97 97 98 99 100 99 99 98 95 93 91 86 74 59 45 35 29 26 23 20 19 20
8 10 13 15 16 20 25 28 34 40 44 50 58 65 74 82 87 91 93 91 85 79 76 71 64 60 64 71 69 57 43 29 17 9 4 2 2 2 -0 1 9 23 38 42 40 51 75 93 98 98 99 99 97 96 99 100 100 100 100 99 99 98 96 95 89 77 60 41 28 23 22 21 20 21
9 12 15 16 19 23 28 33 40 48 55 60 69 81 91 96 98 99 98 96 93 90 87 81 74 71 75 83 84 71 55 40 25 15 10 5 1 1 1 2 4 13 24 31 34 46 68 88 96 97 100 101 98 97 99 99 99 100 100 99 99 99 99 100 99 92 80 60 37 23 20 21 22 22
11 14 16 17 21 26 30 35 44 53 60 68 80 92 100 101 99 97 95 94 96 99 97 92 87 83 82 87 90 83 70 56 40 28 19 10 2 0 2 2 3 10 22 30 36 50 71 88 94 94 98 100 99 98 99 99 100 101 99 99 99 98 99 100 100 99 95 82 59 33 20 20 22 23
11 15 17 19 22 27 29 35 46 55 63 74 85 92 96 97 95 93 94 96 98 101 97 93 94 93 89 92 95 91 84 72 54 38 24 11 3 1 1 2 5 13 26 38 49 65 79 88 91 93 96 97 97 97 99 99 100 100 99 98 98 98 98 98 99 100 99 95 83 57 30 20 22 23
11 15 18 20 22 25 28 34 44 55 65 75 83 85 88 91 90 90 94 96 98 99 94 91 97 100 97 98 98 95 93 87 75 60 41 19 6 3 2 1 6 21 37 47 58 74 87 91 92 93 96 98 98 98 98 96 96 97 99 99 98 99 99 98 99 100 98 97 97 80 47 25 23 25
11 15 18 19 21 23 26 32 42 53 63 70 76 78 81 85 88 88 90 91 95 97 93 91 97 100 99 100 100 96 95 92 92 91 72 33 7 5 10 11 16 32 45 50 60 80 92 91 87 88 92 96 97 97 97 95 95 98 99 99 99 98 99 98 98 100 99 98 100 93 67 39 28 27
10 14 17 18 19 21 25 29 37 49 58 63 68 72 75 81 86 89 88 89 93 96 94 93 98 100 100 100 100 100 97 92 95 101 88 57 35 32 34 35 39 47 51 56 74 90 92 88 90 93 94 94 94 95 96 97 99 100 98 99 100 98 98 100 99 99 100 99 100 100 88 66 46 36
9 12 15 17 19 21 24 26 32 44 53 56 60 65 70 77 84 89 91 92 96 98 96 95 98 100 100 99 99 100 100 98 96 92 87 83 78 71 64 64 69 69 60 60 78 90 88 87 93 96 95 94 94 94 96 99 101 100 97 98 99 99 98 99 100 100 101 100 99 100 100 90 73 54
8 11 13 17 19 21 23 25 29 39 49 53 55 58 64 71 79 87 93 97 99 100 98 97 98 100 100 100 100 99 99 100 96 87 85 94 97 92 88 91 93 87 72 67 80 93 90 87 89 91 95 99 96 92 94 99 100 99 98 98 99 100 99 98 99 100 100 101 100 99 100 100 91 75
8 9 12 16 19 20 22 23 25 32 42 49 53 54 57 63 72 80 86 92 96 99 99 97 96 98 100 100 100 100 100 99 97 92 91 97 99 97 97 96 93 90 87 87 93 99 97 93 93 95 97 97 93 91 94 98 99 99 98 98 99 100 100 99 100 101 100 100 100 100 100 100 98 91
7 8 10 13 16 19 22 23 24 28 34 42 49 52 52 56 63 71 77 85 93 98 100 99 97 97 100 100 99 100 100 100 99 97 93 94 96 95 95 93 86 84 92 98 98 97 98 99 100 100 98 94 91 92 95 98 99 99 99 99 99 100 100 99 99 100 100 100 100 99 100 100 100 99
6 7 9 10 13 18 22 24 26 29 31 37 45 50 50 51 56 64 72 80 88 94 98 100 99 98 98 99 99 100 100 99 100 100 97 97 98 95 93 91 84 79 85 96 98 96 98 99 99 100 100 98 96 96 97 98 98 97 98 100 100 100 99 100 100 99 99 99 99 98 100 100 99 100
7 6 8 9 11 16 22 25 28 30 31 36 44 49 50 50 52 58 66 72 80 88 94 98 100 99 99 99 99 100 100 99 100 100 99 99 100 97 93 91 88 84 85 90 94 97 99 100 100 100 100 99 99 99 99 100 99 96 97 99 100 100 100 100 100 99 99 100 99 99 100 100 99 100
8 7 8 8 9 13 19 24 28 30 33 37 44 48 51 51 50 52 59 65 72 80 87 94 98 100 100 100 100 99 100 100 100 99 99 99 100 100 98 96 96 95 93 92 95 98 99 98 99 100 100 98 99 99 99 100 100 99 99 100 100 100 100 100 99 99 99 100 100 101 101 100 99 100
12 9 8 8 9 11 15 21 26 30 33 37 42 47 52 52 50 48 50 57 63 69 76 86 94 98 100 100 100 100 100 100 100 100 100 100 100 100 100 100 100 100 99 99 100 100 100 100 100 100 99 97 97 99 100 100 100 100 100 100 99 99 99 100 100 99 99 100 100 100 99 99 99 100
16 13 10 9 9 9 11 16 22 28 32 35 38 43 47 48 48 46 45 49 55 59 65 75 84 92 97 99 100 101 99 98 99 99 99 100 100 100 100 100 100 100 100 100 100 98 98 98 98 97 97 95 95 97 99 100 100 100 99 99 98 98 99 100 100 100 100 100 100 99 99 99 100 100
21 18 14 11 9 9 10 12 16 22 30 34 38 41 43 43 43 41 40 44 49 52 56 64 71 80 88 94 97 100 100 98 96 96 97 99 100 100 100 100 100 99 97 94 91 90 89 89 91 95 97 98 97 97 98 99 100 98 98 98 98 98 99 100 99 100 100 100 100 100 100 100 99 100
25 23 20 16 12 10 10 11 13 16 22 30 37 41 41 42 42 39 37 39 44 47 50 55 59 66 75 84 89 94 99 100 99 97 97 99 99 99 100 100 99 98 94 90 87 85 83 84 87 91 93 94 95 97 99 100 100 99 99 99 98 99 99 100 99 100 100 99 100 100 99 98 98 99
27 27 26 23 18 14 11 10 11 13 16 21 28 33 35 37 38 37 35 36 38 42 46 49 52 55 62 71 80 87 93 98 100 100 99 98 96 94 94 93 93 93 90 86 84 82 80 82 85 86 87 90 93 96 99 99 98 99 100 100 99 99 100 100 100 100 99 99 100 100 100 100 100 98
29 30 30 28 26 22 17 12 10 11 13 15 18 22 26 30 31 31 30 30 32 36 41 45 48 50 52 58 68 76 85 91 96 100 101 98 95 92 89 86 84 83 81 80 80 82 86 91 95 95 94 94 96 97 98 97 97 99 100 100 100 100 100 100 100 100 99 99 99 98 97 96 95 94
30 32 32 32 30 29 25 20 15 11 11 12 13 15 18 22 25 25 24 25 27 32 36 41 45 46 48 52 56 63 73 82 89 95 99 100 98 97 95 93 90 88 86 88 90 93 96 99 100 99 99 99 100 99 99 98 99 100 100 100 100 100 99 99 99 98 96 96 97 97 97 95 92 93
32 32 34 35 34 33 32 29 25 19 14 12 11 12 14 17 20 22 22 23 25 27 31 37 41 43 47 50 51 53 61 70 78 86 94 99 101 100 99 100 100 98 98 98 99 99 99 100 100 100 99 99 100 100 99 99 98 98 98 98 98 98 99 100 100 99 99 99 98 99 100 100 98 98
36 33 33 35 35 35 34 33 32 29 24 18 14 11 11 13 15 17 19 21 23 23 25 30 35 40 44 48 50 51 54 59 66 73 82 91 98 99 98 97 97 96 97 99 99 99 100 100 100 100 100 100 100 100 100 99 96 95 95 94 94 95 96 98 99 99 98 99 100 99 100 100 100 100
Wind_Speed
32 32 33 33 33 33 32 32 32 32 32 32 33 33 34 36 37 37 37 35 31 27 25 26 27 27 28 28 27 26 24 23 25 29 31 33 34 35 36 36 36 37 36 35 34 34 33 33 34 34 35 33 31 29 28 26 26 27 27 28 32 34 35 34 33 33 33 32 31 31 31 30 29 28
30 30 31 31 31 32 32 32 32 33 33 32 33 33 34 35 36 38 39 37 33 30 28 27 28 28 26 26 28 29 27 25 26 29 31 34 36 36 35 36 38 39 38 37 36 36 35 35 35 35 36 35 33 33 31 28 28 28 29 31 33 35 36 35 34 34 34 33 32 32 31 31 30 30
28 29 29 30 30 30 31 31 32 32 32 32 32 32 33 34 36 37 40 39 34 32 33 30 29 31 30 29 29 29 29 28 28 29 29 32 35 37 37 37 39 41 41 40 38 38 37 37 36 36 36 36 35 36 34 31 30 30 31 33 35 36 37 36 35 35 35 35 34 33 32 31 31 31
29 30 30 31 31 32 31 32 32 32 32 32 32 32 32 33 35 36 39 41 36 34 36 34 31 32 34 34 32 30 30 29 29 30 30 30 33 37 41 41 40 42 43 42 41 40 39 39 38 37 37 37 37 37 37 34 32 32 33 34 36 37 37 38 37 36 36 36 35 34 33 32 32 32
30 30 31 32 32 33 33 33 33 33 33 33 33 33 33 33 34 36 38 41 39 35 36 38 34 33 35 36 35 34 32 31 30 31 32 31 32 35 41 43 42 43 44 43 42 43 41 40 40 39 39 39 39 39 38 37 35 34 35 36 37 38 39 38 39 38 38 37 36 35 34 33 33 33
30 31 31 32 32 33 33 33 34 34 34 34 33 34 34 34 34 36 37 40 40 36 35 38 38 36 36 37 36 36 36 33 32 32 32 32 31 33 38 43 44 43 44 44 44 44 43 42 41 40 40 40 40 40 39 39 38 36 36 37 38 39 40 40 39 39 39 38 38 36 35 35 34 34
30 31 31 32 33 33 33 34 34 35 35 35 35 35 35 35 35 36 38 39 41 39 36 36 38 38 38 38 37 38 38 36 34 33 32 32 32 33 36 41 46 45 43 44 44 44 44 43 42 42 42 41 41 41 41 40 39 38 38 39 40 40 40 40 40 40 40 39 39 37 36 36 36 35
31 32 32 33 33 34 34 35 35 35 36 36 36 37 37 37 37 36 38 39 41 42 39 37 38 39 39 39 39 39 40 39 37 35 34 33 33 34 34 37 42 44 44 44 44 45 45 45 44 43 43 43 42 42 42 42 41 40 40 40 41 42 42 41 41 41 41 40 40 39 37 37 37 36
32 33 34 34 35 36 36 37 37 37 37 37 38 38 38 39 39 39 39 40 40 42 42 39 39 39 40 40 39 40 41 41 39 38 36 34 33 34 34 35 37 40 43 46 45 44 46 47 46 46 45 44 44 43 43 43 43 42 42 41 42 43 43 43 43 42 42 42 41 40 39 39 38 37
32 33 34 35 36 36 37 37 38 38 39 39 39 40 41 41 41 41 41 42 42 43 43 41 40 40 41 41 40 40 42 42 41 40 38 36 35 35 36 36 36 36 40 46 48 46 46 48 48 48 47 46 45 45 44 44 45 45 44 43 42 43 44 44 43 43 43 43 42 41 40 40 40 38
33 34 34 35 35 36 36 37 37 38 39 39 40 41 42 43 43 44 43 44 45 45 45 44 42 41 41 42 41 40 41 43 43 42 41 39 36 36 37 37 37 36 37 42 50 51 48 49 49 48 48 48 47 47 46 46 46 47 46 45 44 44 44 44 44 44 44 44 43 41 41 41 41 39
34 35 35 36 36 36 36 37 37 37 38 39 39 40 42 44 45 46 46 46 46 47 47 46 45 43 43 43 42 41 42 44 44 42 43 41 36 34 37 37 36 38 37 37 45 53 53 50 49 48 49 49 49 48 48 47 48 48 48 47 45 44 44 44 44 44 44 44 43 42 42 42 41 40
35 36 36 37 37 37 37 37 37 37 38 39 40 41 42 43 45 47 48 48 48 49 49 48 47 46 45 44 43 41 42 45 45 43 44 44 38 34 37 39 38 38 38 36 39 48 54 52 49 49 51 51 51 51 51 50 50 50 49 49 48 46 45 45 45 45 44 45 44 43 43 43 42 41
35 36 36 37 37 37 38 38 38 38 39 39 41 42 42 43 44 46 47 49 49 50 51 50 49 48 48 46 45 43 42 43 46 45 44 45 44 40 40 41 39 38 39 38 38 42 49 53 52 51 51 51 51 52 53 52 51 50 51 51 50 48 47 45 45 45 45 45 45 44 44 43 43 42
36 36 36 36 37 37 38 39 39 39 39 40 40 41 41 41 42 44 46 47 48 49 51 51 51 50 50 48 47 47 44 42 45 47 46 46 47 47 44 41 38 38 38 40 40 40 43 50 54 53 51 50 52 54 54 53 51 50 51 52 51 50 48 47 46 45 45 45 45 45 44 44 43 43
37 37 36 36 37 37 39 40 41 41 41 41 41 41 41 40 40 41 42 44 46 47 49 50 51 51 51 50 49 49 47 45 44 46 48 48 48 50 49 44 41 41 40 40 41 41 40 43 51 56 55 51 51 54 55 53 51 51 52 53 53 52 50 48 47 46 45 45 45 45 45 45 44 43
37 37 37 37 38 39 40 41 43 43 43 43 43 42 41 40 40 39 38 39 40 42 45 47 49 49 50 51 50 48 49 48 46 46 47 49 49 50 52 51 48 44 41 41 42 43 42 41 44 53 58 55 51 52 55 55 53 52 53 53 53 53 52 50 49 47 46 46 45 45 45 45 45 44
38 38 39 39 40 41 42 43 45 46 46 46 45 44 43 42 40 39 37 36 36 38 40 44 46 46 48 51 51 49 48 49 49 47 47 48 49 50 51 54 51 45 41 41 42 44 44 40 39 44 52 58 56 51 52 55 55 54 54 54 55 54 54 53 51 49 48 47 46 46 45 45 45 45
38 38 39 40 41 42 43 44 46 47 48 48 48 47 46 45 43 41 39 37 36 36 38 41 44 45 45 49 52 51 49 49 50 49 47 47 49 50 51 53 52 48 44 42 42 44 43 39 37 39 43 53 59 56 51 52 55 56 55 54 55 56 55 54 53 51 49 48 47 47 46 46 46 45
37 37 39 40 41 42 43 45 47 48 50 50 51 51 50 48 46 43 40 38 38 39 40 42 44 45 45 46 50 51 50 49 49 49 49 48 48 50 52 52 51 50 46 44 44 44 42 38 37 38 40 44 52 58 57 53 54 57 57 56 56 56 56 55 54 52 51 49 48 47 47 47 46 46
37 37 38 39 41 42 44 46 47 49 50 51 52 52 51 50 48 44 41 39 39 40 43 44 46 47 46 45 46 49 50 49 47 49 51 49 47 49 52 51 51 51 49 48 47 44 42 38 35 36 40 41 43 51 58 58 55 56 58 58 57 57 56 55 55 53 52 51 50 49 49 48 48 47
36 36 37 38 40 42 44 45 47 49 50 51 51 51 51 50 48 46 43 42 42 42 43 46 48 49 48 44 43 45 48 47 46 48 51 48 44 47 51 50 50 51 52 52 50 46 44 40 35 34 38 41 41 44 51 58 57 55 57 59 57 57 58 57 55 55 53 52 52 51 50 50 49 49
36 36 37 38 39 41 43 45 46 48 48 49 49 49 48 48 47 45 44 44 44 44 45 48 50 50 46 41 38 40 44 45 44 46 48 46 44 47 49 48 48 50 52 53 52 51 46 40 36 36 37 39 41 42 47 55 58 54 54 58 58 57 58 58 57 56 54 53 53 53 53 52 52 52
36 36 37 38 39 41 42 43 45 45 45 46 46 44 43 43 43 44 43 42 43 44 45 48 51 50 43 37 33 34 39 42 41 43 45 45 44 45 45 45 47 48 48 49 51 51 47 40 37 37 37 39 41 42 46 52 56 53 51 55 58 58 58 59 59 58 56 55 54 54 54 54 54 55
35 36 37 38 39 40 41 42 43 43 42 43 42 40 38 39 41 43 43 41 40 40 42 45 48 47 41 33 29 29 34 39 40 42 43 42 41 42 42 42 45 46 44 44 47 47 45 41 37 34 35 37 39 40 43 46 50 50 48 50 55 57 58 59 60 60 60 58 57 56 56 55 56 57
35 36 37 38 38 38 39 40 41 41 40 40 39 37 36 37 39 40 41 40 39 37 37 41 43 42 37 30 25 24 28 34 37 39 40 38 36 38 39 39 41 42 40 39 40 41 40 39 36 33 33 32 32 34 39 43 43 44 44 46 50 54 57 59 60 61 62 62 61 59 57 57 58 59
35 35 36 36 36 37 38 39 40 40 39 39 38 37 37 37 38 39 39 39 38 35 34 38 39 37 33 27 21 20 23 28 31 33 33 32 31 33 35 36 36 38 38 38 38 37 36 35 34 33 31 29 28 29 33 37 38 39 41 45 49 51 54 58 59 61 64 65 65 62 58 58 61 62
35 35 34 35 35 36 37 38 38 39 38 38 38 38 39 39 39 40 40 39 39 36 34 37 39 35 30 26 20 18 20 23 25 25 25 25 26 28 30 31 33 35 37 38 37 35 34 34 34 32 30 29 28 28 30 33 36 38 39 43 49 51 52 56 59 61 65 66 66 64 63 63 65 66
33 33 33 33 34 35 35 36 37 38 38 38 39 40 41 42 43 44 43 41 39 37 35 37 40 37 30 25 20 16 18 20 20 20 20 21 24 26 27 28 32 34 36 38 37 35 35 35 32 31 30 29 28 29 29 31 37 40 38 39 48 52 49 51 57 62 66 69 67 66 68 68 68 68
32 32 32 33 34 35 36 37 38 38 38 39 40 41 42 45 46 47 47 44 41 39 38 39 41 39 31 23 19 14 11 17 18 17 18 19 21 24 25 26 28 30 34 37 36 34 35 34 31 30 29 28 28 29 28 28 35 39 33 33 44 50 44 43 52 59 65 71 70 68 71 72 70 68
32 33 33 34 34 35 35 36 37 38 39 40 42 43 45 47 48 49 49 47 43 41 41 41 42 41 33 23 18 17 8 8 15 16 16 18 19 20 21 23 24 25 29 33 33 32 33 33 32 30 28 26 25 26 26 28 33 34 29 29 38 47 42 38 44 55 63 70 69 65 66 70 71 69
33 33 33 34 34 34 35 35 36 38 39 40 42 44 46 47 49 50 50 49 47 43 42 42 42 42 39 29 21 20 17 6 10 16 18 18 19 20 22 23 24 24 24 26 28 30 31 31 29 27 25 24 24 24 24 27 30 32 29 28 30 39 40 36 39 48 58 65 67 64 62 65 69 69
32 33 33 33 34 34 35 36 36 38 40 41 42 44 46 48 50 51 52 53 51 46 44 44 44 44 44 39 30 25 24 21 12 12 17 19 20 22 24 25 25 25 23 21 21 24 27 28 26 24 23 22 22 22 22 25 28 30 32 31 28 29 34 35 38 43 49 55 62 64 62 62 65 66
32 33 33 34 35 35 36 37 37 37 39 41 43 44 46 48 51 52 53 54 53 49 45 44 46 46 45 44 40 33 30 30 26 18 14 15 17 18 20 21 22 22 22 20 18 18 20 21 22 24 24 22 21 22 22 24 26 25 28 33 33 29 28 32 39 45 48 50 56 61 62 61 62 62
33 33 33 34 35 36 37 38 37 37 38 41 42 44 46 48 50 51 52 53 53 51 48 45 46 47 46 47 45 40 34 32 30 28 24 19 15 14 14 16 17 19 19 19 18 18 18 19 21 25 25 22 22 23 24 26 26 23 23 30 34 32 29 28 36 46 50 51 58 64 63 60 60 60
34 34 34 34 35 36 37 37 37 37 38 39 41 43 45 47 48 49 49 50 51 51 49 48 47 47 46 46 46 43 39 35 31 29 28 24 18 15 14 14 14 15 17 18 18 18 19 19 21 24 24 22 21 22 24 26 27 25 25 27 29 30 30 29 35 47 52 54 60 64 60 58 59 58
34 34 34 35 35 35 36 37 37 37 37 38 40 42 43 45 46 46 46 48 48 49 50 50 48 46 45 45 45 44 43 40 36 32 30 27 22 18 15 15 14 14 15 16 17 17 17 18 19 21 21 21 20 20 20 22 22 23 24 23 20 22 27 29 36 49 57 56 57 56 52 52 52 49
34 34 35 35 34 35 36 36 37 37 37 37 38 39 40 41 43 44 44 46 46 47 49 50 48 47 46 45 45 44 44 43 40 37 34 30 27 23 19 17 15 14 12 11 11 11 11 12 14 15 16 17 18 18 16 16 17 17 17 14 10 12 21 30 37 47 54 53 50 45 39 36 36 36
34 34 35 35 35 35 35 36 36 37 37 37 37 37 38 39 40 42 43 44 45 46 48 49 48 47 47 45 45 44 44 43 42 40 37 33 30 27 24 21 19 17 14 12 10 8 5 5 5 7 9 10 11 10 9 9 11 12 11 10 7 6 17 29 37 42 46 45 43 39 33 27 24 25
33 34 35 35 35 34 34 35 35 36 36 37 37 37 37 38 39 40 41 42 43 44 45 46 47 47 47 46 45 44 43 42 41 40 38 35 33 30 27 24 22 19 16 15 15 14 12 12 12 12 11 10 9 8 5 5 9 12 13 12 10 10 17 27 34 37 39 38 37 33 28 24 22 21
32 33 34 34 34 35 34 34 34 35 35 36 36 36 36 37 38 39 40 40 41 42 43 44 45 45 46 46 45 44 42 40 38 38 38 37 35 33 31 28 25 22 19 18 18 19 19 20 19 18 17 16 14 12 9 11 15 16 15 16 18 19 22 26 29 31 32 32 29 26 22 21 19 19
31 32 33 33 33 34 34 34 34 34 34 34 34 35 35 36 37 38 38 38 39 39 40 42 43 43 44 45 44 43 42 39 36 35 35 35 36 36 35 33 31 28 26 25 26 26 26 26 22 19 18 18 16 14 16 19 21 21 20 22 23 23 22 22 21 20 20 20 19 18 17 17 17 18
30 31 31 32 32 33 33 34 34 34 33 33 33 33 34 35 35 36 36 37 38 38 39 40 40 41 42 43 42 41 41 40 36 33 31 32 34 36 37 37 36 35 33 33 33 31 29 26 22 19 18 17 14 13 16 20 21 21 22 22 21 19 17 15 13 11 10 11 12 12 13 14 15 16
27 28 30 31 31 32 32 32 33 33 33 33 33 33 33 34 34 34 35 35 36 37 37 37 37 38 39 40 40 39 39 38 36 33 30 29 29 31 32 32 32 32 32 32 31 30 28 26 23 19 18 17 14 12 15 18 19 19 20 21 20 19 19 17 16 15 14 14 14 13 13 13 13 15
26 26 27 28 29 30 31 31 31 32 32 33 33 32 32 32 33 33 33 33 34 35 35 35 35 36 37 37 37 37 37 36 35 33 31 28 26 26 27 27 26 26 26 26 25 25 24 23 21 19 18 18 17 15 15 16 17 18 19 20 20 20 21 21 22 22 22 22 21 20 19 19 19 21
Wind_Direction
310 310 309 309 308 307 306 304 302 300 298 296 295 294 293 293 292 292 291 290 290 287 280 278 281 284 287 288 288 286 281 271 257 247 241 239 238 236 236 238 238 237 238 237 236 233 231 231 232 232 232 232 229 229 236 238 233 229 223 216 210 205 203 204 204 205 205 206 207 208 208 207 206 209
316 315 314 314 313 312 311 309 307 305 303 300 297 295 293 292 291 290 290 289 291 289 282 275 274 276 279 281 282 283 281 274 265 260 253 245 241 239 237 237 237 237 237 237 237 235 233 231 231 231 231 231 229 226 232 236 232 229 223 216 212 208 206 207 208 208 208 208 210 211 212 211 210 211
324 323 322 321 320 319 317 316 314 311 309 306 303 299 295 292 290 288 287 287 288 289 285 279 273 270 270 273 276 278 279 275 268 266 263 255 248 242 239 237 236 235 235 235 235 235 234 232 231 231 229 230 228 225 229 234 231 228 225 219 215 212 209 209 211 212 211 211 212 213 214 215 214 214
327 326 324 323 322 321 320 318 317 315 313 311 308 305 301 296 292 289 286 286 286 285 283 281 277 271 268 269 271 273 274 273 269 266 264 262 257 248 240 237 236 235 234 234 234 234 235 233 231 231 229 228 226 224 227 232 231 227 225 222 218 216 214 213 213 214 215 214 214 215 216 217 217 217
326 324 323 322 321 319 318 317 316 315 313 312 310 307 305 301 297 293 289 287 286 283 281 280 278 275 271 269 267 267 267 268 268 266 262 260 260 255 245 237 235 236 235 233 233 233 234 233 232 231 230 229 227 226 226 230 230 227 225 222 221 219 217 216 216 217 217 217 217 217 217 218 219 219
324 323 321 320 319 318 316 316 314 313 312 310 309 307 305 303 300 296 294 291 289 287 282 279 277 275 273 271 269 266 264 265 265 265 263 260 258 259 252 240 233 234 236 234 232 232 232 233 232 231 230 230 229 228 226 227 229 228 225 223 222 221 220 219 219 220 220 220 219 219 219 220 221 222
324 323 322 320 318 317 316 315 313 312 311 309 308 306 304 302 300 297 295 293 292 291 287 282 278 274 272 271 270 267 265 263 262 261 263 263 259 259 256 245 235 232 234 234 233 232 232 233 232 231 231 230 230 229 226 226 228 228 226 224 224 223 222 221 221 222 222 223 222 221 221 223 223 224
326 325 323 321 320 319 317 315 314 312 310 309 307 305 303 301 299 297 295 293 292 292 291 287 282 277 273 270 268 268 266 263 260 259 259 260 260 260 259 252 241 235 232 232 233 232 231 231 232 232 232 231 230 230 227 224 226 228 227 226 225 225 225 223 223 224 224 225 225 223 223 224 225 226
329 327 326 324 322 320 318 317 315 313 311 309 307 305 303 301 299 297 295 293 291 290 290 289 286 281 277 272 268 267 267 264 261 258 256 256 258 259 258 255 250 243 235 231 233 234 233 231 230 230 231 232 231 230 228 225 224 226 227 227 226 226 227 225 224 224 225 226 226 225 225 225 226 227
331 329 327 325 323 321 319 317 316 314 313 311 309 307 304 302 300 298 296 294 292 290 288 287 285 283 279 276 270 266 266 265 262 258 256 254 255 256 255 254 254 253 244 234 231 235 236 232 230 230 229 230 231 230 228 225 224 225 227 227 226 227 228 228 226 225 226 227 227 226 226 226 227 227
333 331 328 326 324 321 320 319 317 316 314 313 312 309 307 304 302 299 297 294 292 290 288 286 284 282 279 276 273 269 265 263 262 259 255 254 256 256 254 253 254 256 255 244 233 232 236 235 234 233 231 230 230 231 229 227 224 224 226 227 227 227 228 229 230 228 227 228 228 227 227 227 227 227
334 332 330 327 325 324 322 321 320 319 317 315 314 312 310 307 304 302 299 296 293 291 288 286 284 281 278 275 273 270 266 263 261 258 254 252 252 252 251 250 251 253 257 255 240 231 231 234 235 235 234 232 230 230 230 229 226 225 226 227 227 227 227 229 231 231 229 229 229 228 228 228 228 228
335 333 331 329 328 326 325 324 323 322 322 320 318 316 313 310 308 305 302 298 295 292 289 287 284 280 277 275 272 268 265 263 260 257 253 248 243 245 249 249 248 248 251 257 250 236 230 232 234 233 234 233 231 229 230 229 227 225 225 227 227 227 227 227 229 231 231 230 230 229 229 229 229 228
336 334 333 331 330 328 327 326 325 325 325 324 322 320 318 315 312 308 305 302 299 295 292 289 286 282 278 275 273 268 263 261 260 257 253 248 241 240 247 248 246 246 246 251 254 245 234 232 232 233 234 233 232 231 230 230 228 226 225 226 227 227 227 227 228 230 230 231 231 230 230 230 230 229
337 336 335 333 332 331 330 328 328 328 327 326 323 321 320 318 315 311 307 304 301 298 295 292 289 285 280 275 273 270 265 259 257 256 253 249 242 239 242 246 244 244 244 245 250 251 243 235 233 233 233 233 232 231 231 231 229 227 226 226 227 228 228 227 228 229 230 231 231 231 230 230 230 229
339 338 337 336 335 334 333 332 331 330 329 328 326 324 321 319 317 314 310 306 303 300 297 294 291 288 284 278 272 270 268 261 255 253 251 250 245 240 239 240 242 243 244 243 244 250 251 244 237 234 233 233 233 232 231 231 230 228 227 227 227 228 229 228 228 229 229 230 230 230 230 230 230 230
341 340 339 339 338 338 337 335 334 333 332 331 329 327 325 323 321 317 312 307 302 299 297 295 292 290 287 282 275 270 269 265 258 252 249 248 246 242 238 238 241 243 244 242 242 245 249 251 245 237 233 232 234 234 232 230 229 228 227 227 228 229 229 229 229 229 229 230 230 230 230 230 229 230
343 342 342 342 342 341 340 339 338 337 336 335 333 331 329 328 326 321 314 307 301 297 296 294 293 291 288 284 280 274 269 266 261 255 249 246 244 243 240 237 238 239 239 240 241 242 245 250 251 244 235 231 232 234 233 231 230 228 227 227 227 228 229 229 229 229 229 229 230 230 230 229 229 229
346 346 345 345 344 344 343 343 342 340 339 338 336 334 332 331 329 325 319 313 307 301 299 298 296 294 290 285 282 277 271 266 262 258 251 246 243 242 240 237 234 233 235 238 240 241 243 246 249 246 239 233 231 233 233 232 230 228 227 227 227 227 229 230 229 230 230 229 230 230 230 230 229 229
349 349 348 346 346 345 345 345 343 342 341 339 337 336 334 332 331 329 325 320 316 311 307 305 301 297 293 286 280 277 273 267 263 260 254 247 243 240 239 238 233 229 232 236 238 239 241 244 247 247 242 237 234 233 232 232 230 228 226 225 226 226 228 229 229 230 230 230 230 230 230 230 229 228
352 352 350 348 347 346 346 345 344 342 341 340 338 336 334 333 333 332 329 325 320 316 312 309 305 301 296 288 278 274 272 267 264 261 254 247 244 241 239 237 233 228 228 233 236 238 239 242 248 249 246 244 242 238 234 231 230 229 226 224 224 225 226 228 229 230 230 230 230 230 230 230 229 227
354 353 351 349 348 347 347 346 344 342 341 340 338 337 336 336 336 334 331 327 322 318 314 312 311 307 301 291 278 269 267 264 261 259 254 249 245 242 238 236 234 229 227 231 234 237 237 239 245 250 249 248 249 246 239 231 228 230 228 224 224 225 225 227 228 229 230 230 229 229 229 229 228 227
356 353 352 351 350 349 348 346 344 343 342 341 340 339 339 338 337 335 333 329 324 320 317 316 316 313 307 296 280 266 262 260 257 256 255 250 244 240 237 235 234 231 229 231 233 235 236 237 242 248 249 249 249 250 245 234 226 227 228 225 224 225 224 225 227 227 228 229 228 229 228 228 228 228
356 354 353 352 351 350 348 347 345 344 343 342 343 343 342 340 340 339 336 333 329 325 322 321 321 318 310 297 282 265 257 256 254 252 252 249 243 239 236 233 233 232 230 230 232 234 234 236 241 247 248 249 251 252 249 237 226 224 228 227 225 225 225 225 226 226 226 227 228 228 228 228 228 228
356 355 354 353 352 351 349 347 347 346 346 347 347 345 342 341 342 341 339 338 336 332 329 328 325 321 312 298 282 265 253 251 251 249 247 245 241 237 234 231 231 232 230 228 229 231 233 234 240 246 248 252 255 252 242 233 225 225 229 230 227 227 227 227 227 226 225 225 226 226 226 227 228 229
358 357 356 354 352 350 349 349 349 349 351 353 351 347 343 341 341 342 343 344 342 339 336 334 330 324 317 304 284 265 252 247 247 247 245 242 238 234 231 228 228 229 229 226 225 227 230 233 237 244 248 253 259 248 231 224 225 229 233 232 230 230 229 228 229 230 228 225 224 224 225 225 227 229
359 358 356 353 351 350 350 351 352 354 356 357 355 352 351 348 346 347 349 350 349 346 344 342 338 332 327 317 294 267 251 244 243 245 245 241 234 230 228 225 224 225 225 223 223 225 230 234 238 244 246 248 253 249 234 231 236 241 241 237 233 231 231 231 231 232 232 229 224 222 222 223 225 227
0 358 356 353 351 351 353 354 356 358 -0 360 359 359 359 358 357 355 355 354 355 355 353 350 348 345 341 335 316 279 255 243 238 240 240 234 226 223 223 222 221 222 220 218 218 222 230 235 238 242 245 244 247 249 247 247 248 249 251 246 238 233 232 232 231 232 233 233 228 221 218 220 223 225
1 359 356 355 353 353 355 357 359 2 3 3 4 4 4 5 5 4 2 0 1 2 3 -0 358 357 354 349 336 302 262 240 229 228 227 220 216 217 218 218 218 217 214 212 213 218 228 235 237 237 240 243 245 247 250 251 248 249 256 254 242 236 236 233 231 230 230 232 232 227 222 220 222 224
2 359 358 358 357 357 359 360 1 4 5 6 8 9 9 10 11 11 9 8 8 9 11 9 6 5 4 1 357 341 276 232 214 211 213 211 212 214 213 212 211 209 209 210 211 217 227 236 240 239 237 238 241 244 247 248 244 246 258 259 242 235 239 238 232 229 228 228 227 226 225 223 222 223
3 1 2 1 360 360 2 2 3 5 7 9 10 12 12 13 14 15 14 13 14 15 16 14 11 12 13 15 22 25 10 224 205 199 198 199 202 204 200 200 204 207 209 211 213 221 229 234 237 237 232 231 239 244 245 245 245 247 261 268 246 234 237 242 234 227 227 227 224 221 222 224 223 220
4 3 4 3 1 1 3 5 6 6 8 11 13 13 14 14 16 17 18 18 18 19 20 18 16 17 20 25 35 45 48 80 183 193 191 188 193 195 193 197 204 206 208 212 217 222 226 228 231 233 231 232 241 247 243 245 252 256 266 276 258 236 234 242 238 228 227 229 226 220 217 222 225 222
5 5 5 4 3 3 4 7 9 8 8 11 14 14 14 15 16 17 19 20 20 20 21 21 20 19 23 28 36 48 55 64 94 163 183 187 195 198 196 200 206 205 206 214 221 223 224 225 228 233 236 239 245 249 243 240 247 253 257 265 263 244 234 238 241 238 234 232 229 224 219 220 225 224
6 8 8 7 6 6 5 7 11 10 9 11 14 15 15 16 16 17 18 19 20 20 22 24 23 22 23 27 34 42 51 57 65 85 125 161 190 202 198 201 208 210 210 215 223 228 225 221 222 230 237 241 243 247 248 245 245 246 246 250 255 255 246 236 233 234 235 230 226 226 224 222 225 227
10 10 10 10 9 8 7 8 10 12 12 12 13 14 16 16 16 17 17 18 19 20 23 26 26 25 25 26 30 36 44 53 61 69 84 112 155 185 193 198 208 214 217 222 230 228 213 202 211 224 233 238 239 240 243 244 245 246 242 242 249 256 255 240 226 224 225 219 217 221 223 221 224 227
12 12 12 12 12 10 9 8 9 12 14 14 13 14 16 16 16 16 17 19 19 20 23 27 27 27 27 27 29 33 39 48 56 63 72 89 116 145 166 179 190 200 210 219 223 216 200 197 211 224 231 237 239 238 239 240 239 240 239 239 244 250 250 241 224 217 215 213 214 219 224 224 225 227
14 13 14 14 13 12 11 10 9 11 14 16 15 14 15 16 16 15 17 19 20 21 24 28 29 28 28 28 29 33 37 41 47 54 61 71 86 106 131 148 157 169 185 195 199 200 201 208 220 228 233 235 231 228 233 237 235 236 238 239 243 246 244 237 221 210 209 212 216 220 225 227 228 228
15 15 15 15 14 14 13 12 11 11 13 16 17 16 15 16 16 16 17 19 21 22 25 28 29 30 31 29 30 33 36 38 41 47 53 59 67 77 91 104 115 127 143 160 171 184 199 212 223 228 231 232 226 219 221 227 229 229 228 225 224 230 232 230 220 212 211 215 217 217 221 228 232 234
15 16 16 16 15 15 15 14 14 13 13 15 17 17 16 17 17 17 18 20 21 23 26 27 28 31 33 32 32 34 36 37 39 42 46 51 56 63 70 77 85 93 101 108 110 110 123 151 179 194 199 205 207 201 202 215 217 206 188 172 164 207 226 224 220 215 212 212 213 215 218 221 222 224
15 16 17 16 16 16 16 16 16 16 15 15 15 15 16 17 17 18 20 20 21 23 26 28 28 30 33 34 35 36 38 40 42 43 44 47 51 56 61 66 72 77 82 87 89 90 95 103 110 115 119 121 122 120 124 165 172 160 152 157 173 209 221 218 215 213 210 209 212 216 217 213 208 208
15 16 17 17 16 17 17 17 17 17 17 17 16 15 16 17 17 17 19 21 22 23 26 28 28 29 32 34 36 37 39 42 46 48 49 50 52 54 57 62 67 73 79 85 88 88 85 82 82 85 89 90 93 98 115 136 140 140 149 165 178 189 195 198 201 205 206 207 210 215 217 218 218 214
14 16 16 16 17 17 17 17 18 18 18 18 17 17 17 18 18 17 18 21 23 24 26 28 29 30 32 33 34 37 40 42 46 49 51 52 54 55 57 59 62 65 70 74 76 76 74 72 71 75 82 87 94 106 121 128 131 139 152 162 167 172 177 181 188 196 201 205 210 216 220 219 213 207
13 14 14 15 16 17 17 17 18 18 18 18 18 18 19 19 19 19 18 19 22 24 27 28 28 30 32 33 33 36 39 41 43 46 48 49 51 54 57 59 60 62 64 68 71 73 74 76 79 82 89 99 113 128 133 133 136 143 150 156 159 161 162 166 173 182 189 195 199 204 211 211 209 208
11 13 14 14 15 16 17 17 18 18 18 18 18 19 20 20 21 21 20 20 20 23 26 28 28 29 32 33 33 35 37 39 41 43 45 45 47 50 55 59 62 65 67 71 76 79 81 84 86 88 95 107 121 135 138 139 141 144 146 149 152 151 148 148 154 159 162 165 170 177 188 194 197 196
8 11 12 13 14 15 16 17 17 18 19 19 19 19 20 21 21 22 23 22 21 22 24 27 29 30 31 32 33 34 35 37 39 41 44 46 46 47 51 54 57 62 66 69 73 77 81 85 89 91 95 102 107 113 120 128 134 139 143 146 149 151 153 155 158 161 162 162 162 162 165 169 172 174